Location: Arclight Observatory
(36.5667°N, 87.3333°W)
Time: 06:02:05
(UTC-05:00)

ISS - Visible Passes

Search period start: 30 May 2017 00:00
Search period end: 09 June 2017 00:00
Orbit: 402 x 408 km, 51.6° (Epoch: 30 May)

Date Brightness Start Highest point End Pass type
(mag) Time Alt. Az. Time Alt. Az. Time Alt. Az.
30 May -0.2 00:48:09 10° N 00:48:14 10° N 00:48:14 10° N visible
30 May -0.5 20:40:36 10° NW 20:41:59 12° NNW 20:43:22 10° N visible
30 May -0.3 23:57:21 10° NNE 23:57:35 10° NNE 23:57:35 10° NNE visible
01 Jun -0.6 23:48:11 10° NNW 23:49:08 14° N 23:49:08 14° N visible
02 Jun -0.8 22:56:51 10° N 22:58:02 11° NNE 22:58:39 11° NNE visible
03 Jun -0.8 23:39:54 10° NNW 23:40:51 16° NNW 23:40:51 16° NNW visible
04 Jun -1.4 22:48:09 10° NNW 22:50:25 19° NNE 22:50:25 19° NNE visible
05 Jun -1.1 21:56:36 10° N 21:58:15 13° NNE 21:59:54 10° NE visible
05 Jun -0.9 23:31:53 10° NW 23:32:40 16° NW 23:32:40 16° NW visible
06 Jun -2.3 22:39:53 10° NW 22:42:18 34° N 22:42:18 34° N visible
07 Jun -1.9 21:48:01 10° NNW 21:50:43 23° NNE 21:51:58 18° ENE visible
07 Jun -0.8 23:24:14 10° WNW 23:24:37 12° WNW 23:24:37 12° WNW visible
08 Jun -1.3 20:56:20 10° NNW 20:58:20 15° NNE 21:00:20 10° ENE visible
08 Jun -2.8 22:31:52 10° NW 22:34:19 46° WNW 22:34:19 46° WNW visible
